| time (UTC) | temp F | wind direction | speed knots | gust knots | rain 1hr in | rain 24hr in | rain mn in | humidity % | barometer mb |
| 20260506124546 | 55 | 11 | 0.9 | 0.9 | 0.05 | 0.07 | 0.07 | 99 | 1008.3 |
| 20260506124044 | 55 | 22 | 0.0 | 0.9 | 0.07 | 0.06 | 0.06 | 99 | 1008.1 |
| 20260506123541 | 55 | 22 | 0.0 | 0.0 | 0.07 | 0.06 | 0.06 | 99 | 1008.3 |
| 20260506123040 | 55 | 22 | 0.0 | 0.9 | 0.05 | 0.05 | 0.05 | 99 | 1008.2 |
| 20260506122535 | 54 | 22 | 0.0 | 0.0 | 0.05 | 0.05 | 0.05 | 99 | 1008.3 |
| 20260506122034 | 54 | 25 | 0.0 | 0.0 | 0.07 | 0.04 | 0.04 | 99 | 1008.3 |
| 20260506121531 | 54 | 27 | 0.0 | 0.0 | 0.12 | 0.04 | 0.04 | 99 | 1008.1 |
| 20260506121027 | 54 | 26 | 0.0 | 0.0 | 0.05 | 0.03 | 0.03 | 99 | 1008.3 |
| 20260506120525 | 54 | 26 | 0.0 | 0.0 | 0.00 | 0.02 | 0.02 | 99 | 1008.3 |
| 20260506120022 | 54 | 26 | 0.0 | 0.0 | 0.07 | 0.02 | 0.02 | 99 | 1008.1 |
| 20260506115520 | 54 | 26 | 0.0 | 0.0 | 0.07 | 0.02 | 0.02 | 99 | 1008.1 |
| 20260506115019 | 54 | 20 | 0.0 | 0.9 | 0.00 | 0.01 | 0.01 | 99 | 1008.0 |
| 20260506114515 | 54 | 20 | 0.0 | 0.9 | 0.00 | 0.01 | 0.01 | 99 | 1008.1 |
| 20260506114014 | 54 | 17 | 0.0 | 0.9 | 0.00 | 0.01 | 0.01 | 99 | 1008.1 |
| 20260506113511 | 54 | 18 | 0.0 | 0.9 | 0.00 | 0.01 | 0.01 | 99 | 1008.0 |
| 20260506113009 | 54 | 18 | 0.0 | 0.9 | 0.00 | 0.01 | 0.01 | 99 | 1008.1 |
| 20260506112505 | 54 | 17 | 0.0 | 0.0 | 0.00 | 0.01 | 0.01 | 99 | 1008.3 |
| 20260506112003 | 54 | 18 | 0.0 | 0.0 | 0.00 | 0.01 | 0.01 | 99 | 1008.2 |
| 20260506111501 | 54 | 17 | 0.0 | 0.0 | 0.00 | 0.01 | 0.01 | 99 | 1008.4 |
| 20260506110957 | 53 | 17 | 0.0 | 0.0 | 0.00 | 0.01 | 0.01 | 99 | 1008.7 |
| 20260506110455 | 53 | 17 | 0.0 | 0.0 | 0.00 | 0.01 | 0.01 | 99 | 1008.5 |
| 20260506105951 | 53 | 358 | 0.9 | 0.9 | 0.00 | 0.01 | 0.01 | 99 | 1008.3 |
| 20260506105448 | 53 | 26 | 0.0 | 0.9 | 0.00 | 0.01 | 0.01 | 99 | 1008.0 |
| 20260506104945 | 53 | 27 | 0.0 | 0.0 | 0.00 | 0.01 | 0.01 | 99 | 1008.2 |
| 20260506104443 | 53 | 27 | 0.0 | 0.0 | 0.00 | 0.01 | 0.01 | 99 | 1008.2 |
| 20260506103941 | 53 | 25 | 0.0 | 0.9 | 0.00 | 0.01 | 0.01 | 99 | 1008.1 |
| 20260506103438 | 53 | 26 | 0.0 | 0.9 | 0.00 | 0.01 | 0.01 | 99 | 1008.1 |
| 20260506102935 | 53 | 25 | 0.0 | 0.0 | 0.00 | 0.01 | 0.01 | 99 | 1008.1 |
| 20260506102433 | 53 | 25 | 0.0 | 0.0 | 0.00 | 0.01 | 0.01 | 99 | 1008.3 |
| 20260506101930 | 53 | 25 | 0.0 | 0.0 | 0.00 | 0.01 | 0.01 | 99 | 1008.5 |
| 20260506101426 | 53 | 25 | 0.0 | 0.0 | 0.00 | 0.01 | 0.01 | 99 | 1008.4 |
| 20260506100924 | 53 | 25 | 0.0 | 0.0 | 0.00 | 0.01 | 0.01 | 99 | 1008.3 |
| 20260506100422 | 53 | 26 | 0.0 | 0.0 | 0.00 | 0.01 | 0.01 | 99 | 1008.1 |
| 20260506095920 | 53 | 25 | 0.0 | 0.0 | 0.00 | 0.01 | 0.01 | 99 | 1008.2 |
| 20260506095418 | 53 | 25 | 0.0 | 0.0 | 0.05 | 0.01 | 0.01 | 99 | 1008.1 |
| 20260506094914 | 53 | 25 | 0.0 | 0.0 | 0.05 | 0.01 | 0.01 | 99 | 1008.1 |
| 20260506094413 | 53 | 25 | 0.0 | 0.0 | 0.00 | 0.00 | 0.00 | 99 | 1007.8 |
| 20260506093910 | 53 | 25 | 0.0 | 0.0 | 0.00 | 0.00 | 0.00 | 99 | 1008.0 |
| 20260506093407 | 53 | 25 | 0.0 | 0.0 | 0.00 | 0.00 | 0.00 | 99 | 1007.9 |
| 20260506092905 | 53 | 25 | 0.0 | 0.0 | 0.00 | 0.00 | 0.00 | 99 | 1007.8 |
| 20260506092403 | 53 | 25 | 0.0 | 0.0 | 0.00 | 0.00 | 0.00 | 99 | 1007.9 |
| 20260506091859 | 53 | 25 | 0.0 | 0.0 | 0.00 | 0.00 | 0.00 | 99 | 1008.1 |
| 20260506091357 | 53 | 25 | 0.0 | 0.0 | 0.00 | 0.00 | 0.00 | 99 | 1008.0 |
| 20260506090854 | 53 | 25 | 0.0 | 0.0 | 0.00 | 0.00 | 0.00 | 99 | 1008.2 |
| 20260506090352 | 53 | 25 | 0.0 | 0.0 | 0.00 | 0.00 | 0.00 | 99 | 1008.0 |
| 20260506085848 | 54 | 25 | 0.0 | 0.0 | 0.00 | 0.00 | 0.00 | 99 | 1008.2 |
| 20260506085345 | 54 | 25 | 0.0 | 0.0 | 0.00 | 0.00 | 0.00 | 99 | 1008.3 |
| 20260506084841 | 54 | 26 | 0.0 | 0.0 | 0.00 | 0.00 | 0.00 | 99 | 1008.4 |
| 20260506084338 | 54 | 26 | 0.9 | 0.9 | 0.00 | 0.00 | 0.00 | 98 | 1008.1 |
| 20260506083835 | 54 | 19 | 0.0 | 0.0 | 0.00 | 0.00 | 0.00 | 97 | 1008.5 |
| 20260506083332 | 54 | 19 | 0.0 | 0.0 | 0.00 | 0.00 | 0.00 | 97 | 1008.7 |
| 20260506082830 | 54 | 19 | 0.0 | 0.9 | 0.00 | 0.00 | 0.00 | 96 | 1008.5 |
| 20260506082326 | 54 | 17 | 0.0 | 0.9 | 0.00 | 0.00 | 0.00 | 96 | 1008.7 |
| 20260506081822 | 55 | 17 | 0.0 | 0.0 | 0.00 | 0.00 | 0.00 | 95 | 1008.8 |
| 20260506081320 | 55 | 21 | 0.0 | 0.0 | 0.00 | 0.00 | 0.00 | 95 | 1008.9 |
| 20260506080818 | 55 | 21 | 0.0 | 0.0 | 0.00 | 0.00 | 0.00 | 94 | 1008.9 |
| 20260506080314 | 55 | 21 | 0.0 | 0.0 | 0.00 | 0.00 | 0.00 | 94 | 1008.7 |
| 20260506073258 | 55 | 23 | 0.0 | 0.9 | 0.00 | 0.00 | 0.00 | 93 | 1008.7 |
| 20260506072755 | 55 | 18 | 0.0 | 0.9 | 0.00 | 0.00 | 0.00 | 94 | 1008.2 |
| 20260506072252 | 55 | 18 | 0.0 | 1.7 | 0.00 | 0.00 | 0.00 | 95 | 1008.2 |
| 20260506071750 | 54 | 20 | 0.9 | 1.7 | 0.00 | 0.00 | 0.00 | 96 | 1008.2 |
| 20260506071248 | 54 | 5 | 0.0 | 0.0 | 0.00 | 0.00 | 0.00 | 96 | 1008.3 |
| 20260506070744 | 54 | 5 | 0.0 | 0.9 | 0.00 | 0.00 | 0.00 | 96 | 1008.4 |
| 20260506070241 | 55 | 5 | 0.9 | 0.9 | 0.00 | 0.00 | 0.00 | 96 | 1008.2 |
| 20260506062218 | 55 | 5 | 0.0 | 0.0 | 0.00 | 0.00 | 0.00 | 95 | 1008.8 |
| 20260506061714 | 55 | 5 | 0.0 | 0.0 | 0.00 | 0.00 | 0.00 | 94 | 1009.0 |
| 20260506061212 | 55 | 5 | 0.0 | 0.0 | 0.00 | 0.00 | 0.00 | 94 | 1009.1 |
| 20260506060711 | 56 | 5 | 0.0 | 0.0 | 0.00 | 0.00 | 0.00 | 94 | 1009.2 |
| 20260506060207 | 56 | 5 | 0.0 | 0.0 | 0.00 | 0.00 | 0.00 | 93 | 1009.2 |
| 20260506051139 | 55 | 23 | 0.0 | 0.9 | 0.00 | 0.00 | 0.00 | 94 | 1009.8 |
| 20260506050638 | 56 | 22 | 0.0 | 0.0 | 0.00 | 0.00 | 0.00 | 94 | 1009.9 |
| 20260506050134 | 56 | 22 | 0.0 | 0.0 | 0.00 | 0.00 | 0.00 | 93 | 1009.8 |
| 20260506045127 | 57 | 23 | 0.0 | 0.0 | 0.00 | 0.00 | 0.00 | 93 | 1010.0 |
| 20260506044625 | 57 | 22 | 0.0 | 0.9 | 0.00 | 0.00 | 0.00 | 93 | 1010.0 |
| 20260506044122 | 57 | 8 | 0.9 | 1.7 | 0.00 | 0.00 | 0.00 | 93 | 1009.9 |
| 20260506043619 | 57 | 52 | 0.9 | 1.7 | 0.00 | 0.00 | 0.00 | 92 | 1009.9 |
| 20260506043117 | 57 | 10 | 0.9 | 2.6 | 0.00 | 0.00 | 0.00 | 93 | 1009.9 |
| 20260506042616 | 57 | 25 | 0.9 | 0.9 | 0.00 | 0.00 | 0.00 | 94 | 1009.8 |
| 20260506042114 | 57 | 1 | 0.0 | 0.9 | 0.00 | 0.00 | 0.00 | 94 | 1009.7 |
| 20260506041612 | 57 | 2 | 0.0 | 0.9 | 0.00 | 0.00 | 0.00 | 94 | 1009.8 |
| 20260506041108 | 57 | 2 | 0.0 | 0.0 | 0.00 | 0.00 | 0.00 | 93 | 1009.8 |
| 20260506040607 | 57 | 2 | 0.0 | 0.9 | 0.00 | 0.00 | 0.00 | 93 | 1010.0 |
| 20260506035600 | 58 | 1 | 0.0 | 0.9 | 0.00 | 0.01 | 0.01 | 92 | 1010.1 |
| 20260506035056 | 58 | 3 | 0.0 | 0.0 | 0.00 | 0.01 | 0.01 | 91 | 1010.2 |
| 20260506034553 | 59 | 3 | 0.0 | 0.9 | 0.00 | 0.01 | 0.01 | 90 | 1010.3 |
| 20260506034050 | 59 | 1 | 0.9 | 0.9 | 0.00 | 0.01 | 0.01 | 90 | 1010.2 |
| 20260506033548 | 59 | 359 | 0.0 | 0.9 | 0.00 | 0.01 | 0.01 | 89 | 1010.3 |
| 20260506033044 | 60 | 21 | 0.0 | 4.3 | 0.00 | 0.01 | 0.01 | 90 | 1010.1 |
| 20260506032542 | 60 | 1 | 1.7 | 2.6 | 0.00 | 0.01 | 0.01 | 90 | 1010.1 |
| 20260506032038 | 60 | 11 | 0.9 | 4.3 | 0.00 | 0.01 | 0.01 | 91 | 1010.2 |
| 20260506031536 | 60 | 33 | 0.9 | 2.6 | 0.00 | 0.01 | 0.01 | 92 | 1010.2 |
| 20260506031033 | 60 | 312 | 2.6 | 2.6 | 0.00 | 0.01 | 0.01 | 93 | 1009.9 |
| 20260506030531 | 59 | 27 | 1.7 | 2.6 | 0.00 | 0.01 | 0.01 | 96 | 1010.1 |
| 20260506030028 | 59 | 346 | 0.9 | 2.6 | 0.00 | 0.01 | 0.01 | 96 | 1009.9 |
| 20260506025525 | 60 | 2 | 0.9 | 1.7 | 0.00 | 0.01 | 0.01 | 96 | 1009.9 |
| 20260506025021 | 60 | 25 | 0.0 | 0.9 | 0.00 | 0.01 | 0.01 | 96 | 1009.7 |
| 20260506024518 | 60 | 11 | 0.9 | 1.7 | 0.00 | 0.01 | 0.01 | 97 | 1009.6 |
| 20260506024014 | 58 | 31 | 0.0 | 0.9 | 0.00 | 0.01 | 0.01 | 98 | 1009.8 |
| 20260506023510 | 58 | 23 | 0.9 | 0.9 | 0.00 | 0.01 | 0.01 | 97 | 1009.6 |
| 20260506023009 | 58 | 23 | 0.9 | 0.9 | 0.00 | 0.01 | 0.01 | 96 | 1009.6 |
| 20260506022506 | 58 | 23 | 0.0 | 0.9 | 0.00 | 0.01 | 0.01 | 96 | 1009.5 |
| 20260506022003 | 59 | 23 | 0.0 | 0.0 | 0.00 | 0.01 | 0.01 | 95 | 1009.5 |
| 20260506021500 | 59 | 22 | 0.0 | 0.9 | 0.00 | 0.01 | 0.01 | 95 | 1009.5 |
| 20260506020957 | 59 | 23 | 0.0 | 0.0 | 0.00 | 0.01 | 0.01 | 95 | 1009.2 |
| 20260506020455 | 59 | 23 | 0.0 | 0.0 | 0.00 | 0.01 | 0.01 | 95 | 1009.2 |
| 20260506015952 | 59 | 23 | 0.0 | 0.0 | 0.00 | 0.01 | 0.01 | 94 | 1009.1 |
| 20260506015449 | 60 | 22 | 0.9 | 0.9 | 0.00 | 0.01 | 0.01 | 94 | 1009.1 |
| 20260506014946 | 61 | 23 | 0.0 | 0.0 | 0.00 | 0.01 | 0.01 | 93 | 1009.2 |
| 20260506014443 | 61 | 22 | 0.0 | 0.9 | 0.00 | 0.01 | 0.01 | 93 | 1008.9 |
| 20260506013939 | 61 | 23 | 0.0 | 0.9 | 0.00 | 0.01 | 0.01 | 92 | 1009.1 |
| 20260506013438 | 62 | 23 | 0.0 | 0.0 | 0.00 | 0.01 | 0.01 | 92 | 1008.9 |
| 20260506012933 | 62 | 23 | 0.0 | 0.9 | 0.00 | 0.01 | 0.01 | 91 | 1009.0 |
| 20260506012430 | 62 | 22 | 0.0 | 0.0 | 0.00 | 0.01 | 0.01 | 91 | 1008.9 |
| 20260506011927 | 62 | 22 | 0.0 | 0.9 | 0.00 | 0.01 | 0.01 | 91 | 1008.9 |
| 20260506011425 | 62 | 22 | 0.0 | 0.9 | 0.00 | 0.01 | 0.01 | 91 | 1009.0 |
| 20260506010921 | 62 | 22 | 0.0 | 0.0 | 0.00 | 0.01 | 0.01 | 91 | 1008.9 |
| 20260506010420 | 63 | 22 | 0.9 | 0.9 | 0.00 | 0.01 | 0.01 | 90 | 1008.9 |
| 20260506005916 | 63 | 22 | 0.0 | 0.0 | 0.00 | 0.01 | 0.01 | 89 | 1008.8 |
| 20260506005414 | 63 | 22 | 0.0 | 0.0 | 0.00 | 0.01 | 0.01 | 89 | 1008.7 |
| 20260506004909 | 63 | 22 | 0.0 | 0.0 | 0.00 | 0.01 | 0.01 | 88 | 1008.8 |
| 20260506004407 | 62 | 22 | 0.0 | 0.0 | 0.00 | 0.01 | 0.01 | 89 | 1008.5 |
| 20260506003903 | 63 | 23 | 0.9 | 1.7 | 0.00 | 0.01 | 0.01 | 89 | 1008.5 |
| 20260506003359 | 64 | 22 | 0.0 | 0.0 | 0.00 | 0.01 | 0.01 | 87 | 1008.4 |
| 20260506002856 | 63 | 22 | 0.0 | 0.0 | 0.00 | 0.01 | 0.01 | 87 | 1008.4 |
| 20260506002352 | 63 | 22 | 0.0 | 0.0 | 0.00 | 0.01 | 0.01 | 87 | 1008.2 |
| 20260506001848 | 64 | 22 | 0.0 | 0.9 | 0.00 | 0.01 | 0.01 | 88 | 1008.4 |
| 20260506001345 | 65 | 23 | 0.0 | 0.9 | 0.00 | 0.01 | 0.01 | 86 | 1008.3 |
| 20260506000842 | 65 | 22 | 0.0 | 0.9 | 0.00 | 0.01 | 0.01 | 86 | 1008.2 |
| 20260506000340 | 65 | 22 | 0.0 | 0.9 | 0.00 | 0.01 | 0.01 | 83 | 1008.2 |
| 20260505235836 | 65 | 10 | 0.0 | 0.9 | 0.00 | 0.01 | 0.01 | 84 | 1008.3 |
| 20260505235334 | 65 | 19 | 0.0 | 0.9 | 0.00 | 0.01 | 0.01 | 86 | 1008.0 |
| 20260505234830 | 65 | 19 | 0.9 | 0.9 | 0.00 | 0.01 | 0.01 | 85 | 1007.9 |
| 20260505234329 | 65 | 19 | 0.0 | 0.9 | 0.00 | 0.01 | 0.01 | 86 | 1007.9 |
| 20260505233825 | 66 | 20 | 0.9 | 0.9 | 0.00 | 0.01 | 0.01 | 86 | 1007.9 |
| 20260505233323 | 66 | 19 | 0.0 | 0.9 | 0.00 | 0.01 | 0.01 | 85 | 1008.0 |
| 20260505232820 | 66 | 20 | 0.0 | 0.9 | 0.00 | 0.01 | 0.01 | 84 | 1007.8 |
| 20260505232318 | 67 | 19 | 0.0 | 0.0 | 0.00 | 0.01 | 0.01 | 83 | 1008.0 |
| 20260505231814 | 67 | 19 | 0.0 | 0.9 | 0.00 | 0.01 | 0.01 | 81 | 1008.1 |
| 20260505231312 | 67 | 20 | 0.0 | 0.9 | 0.00 | 0.01 | 0.01 | 81 | 1008.1 |
| 20260505230810 | 68 | 20 | 0.0 | 0.0 | 0.00 | 0.01 | 0.01 | 78 | 1007.9 |
| 20260505230307 | 68 | 20 | 0.0 | 0.9 | 0.00 | 0.01 | 0.01 | 77 | 1008.2 |
| 20260505225803 | 68 | 19 | 0.0 | 0.9 | 0.00 | 0.01 | 0.01 | 76 | 1008.2 |
| 20260505225301 | 68 | 19 | 0.0 | 0.9 | 0.00 | 0.01 | 0.01 | 73 | 1008.1 |
| 20260505224755 | 69 | 18 | 0.9 | 0.9 | 0.00 | 0.01 | 0.01 | 72 | 1008.1 |
| 20260505224254 | 69 | 21 | 0.0 | 4.3 | 0.00 | 0.01 | 0.01 | 72 | 1007.9 |
| 20260505223751 | 69 | 39 | 0.9 | 1.7 | 0.00 | 0.01 | 0.01 | 73 | 1007.9 |
| 20260505223247 | 69 | 29 | 0.0 | 1.7 | 0.00 | 0.01 | 0.01 | 72 | 1007.6 |
| 20260505222743 | 69 | 12 | 1.7 | 4.3 | 0.00 | 0.01 | 0.01 | 71 | 1007.8 |
| 20260505222240 | 69 | 26 | 0.0 | 4.3 | 0.00 | 0.01 | 0.01 | 72 | 1007.7 |
| 20260505221737 | 69 | 35 | 0.0 | 2.6 | 0.00 | 0.01 | 0.01 | 71 | 1007.8 |
| 20260505221233 | 69 | 47 | 0.9 | 2.6 | 0.00 | 0.01 | 0.01 | 69 | 1007.7 |
| 20260505220730 | 69 | 36 | 2.6 | 6.1 | 0.00 | 0.01 | 0.01 | 69 | 1007.5 |
| 20260505220228 | 69 | 358 | 1.7 | 4.3 | 0.00 | 0.01 | 0.01 | 69 | 1007.7 |
| 20260505215726 | 70 | 21 | 0.9 | 2.6 | 0.00 | 0.01 | 0.01 | 70 | 1007.6 |
| 20260505215223 | 70 | 28 | 1.7 | 6.1 | 0.00 | 0.01 | 0.01 | 70 | 1007.5 |
| 20260505214721 | 70 | 2 | 1.7 | 7.0 | 0.00 | 0.01 | 0.01 | 69 | 1007.5 |
| 20260505214218 | 71 | 13 | 4.3 | 8.7 | 0.00 | 0.01 | 0.01 | 68 | 1007.5 |
| 20260505213715 | 72 | 273 | 2.6 | 6.1 | 0.00 | 0.01 | 0.01 | 65 | 1007.5 |
| 20260505213213 | 73 | 301 | 1.7 | 8.7 | 0.00 | 0.01 | 0.01 | 60 | 1007.9 |
| 20260505212708 | 75 | 326 | 0.9 | 4.3 | 0.00 | 0.01 | 0.01 | 59 | 1007.1 |
| 20260505212206 | 73 | 252 | 6.1 | 14.8 | 0.00 | 0.01 | 0.01 | 48 | 1006.6 |
| 20260505211703 | 71 | 29 | 1.7 | 1.7 | 0.00 | 0.01 | 0.01 | 66 | 1006.6 |
| 20260505211200 | 73 | 53 | 0.0 | 2.6 | 0.00 | 0.01 | 0.01 | 67 | 1006.4 |
| 20260505210656 | 73 | 15 | 0.0 | 1.7 | 0.00 | 0.01 | 0.01 | 64 | 1006.3 |
| 20260505210153 | 73 | 359 | 0.0 | 0.9 | 0.00 | 0.01 | 0.01 | 64 | 1006.4 |
| 20260505205651 | 73 | 14 | 1.7 | 1.7 | 0.00 | 0.01 | 0.01 | 61 | 1006.3 |
| 20260505205149 | 73 | 25 | 0.0 | 0.9 | 0.00 | 0.01 | 0.01 | 65 | 1006.4 |
| 20260505204645 | 72 | 345 | 1.7 | 1.7 | 0.00 | 0.01 | 0.01 | 58 | 1006.6 |
| 20260505204143 | 71 | 354 | 1.7 | 4.3 | 0.00 | 0.01 | 0.01 | 65 | 1006.7 |
| 20260505203640 | 68 | 348 | 1.7 | 1.7 | 0.07 | 0.01 | 0.01 | 68 | 1006.7 |
| 20260505203137 | 69 | 39 | 0.9 | 2.6 | 0.00 | 0.00 | 0.00 | 70 | 1007.3 |
| 20260505202632 | 72 | 330 | 4.3 | 7.8 | 0.00 | 0.00 | 0.00 | 59 | 1007.5 |
| 20260505202128 | 73 | 331 | 1.7 | 2.6 | 0.00 | 0.00 | 0.00 | 56 | 1006.9 |
| 20260505201625 | 75 | 350 | 3.5 | 6.1 | 0.00 | 0.00 | 0.00 | 54 | 1007.0 |
| 20260505201123 | 77 | 345 | 0.9 | 2.6 | 0.00 | 0.00 | 0.00 | 45 | 1006.7 |
| 20260505200621 | 77 | 346 | 0.9 | 1.7 | 0.00 | 0.00 | 0.00 | 43 | 1006.6 |
| 20260505200118 | 77 | 336 | 0.9 | 1.7 | 0.00 | 0.00 | 0.00 | 44 | 1006.7 |
| 20260505195614 | 78 | 24 | 1.7 | 4.3 | 0.00 | 0.00 | 0.00 | 45 | 1006.7 |
| 20260505195111 | 77 | 227 | 2.6 | 8.7 | 0.00 | 0.00 | 0.00 | 41 | 1006.5 |
| 20260505194608 | 77 | 256 | 2.6 | 4.3 | 0.00 | 0.00 | 0.00 | 46 | 1006.5 |
| 20260505194104 | 78 | 239 | 3.5 | 7.0 | 0.00 | 0.00 | 0.00 | 43 | 1006.5 |
| 20260505193601 | 77 | 273 | 3.5 | 7.0 | 0.00 | 0.00 | 0.00 | 43 | 1006.4 |
| 20260505193058 | 77 | 234 | 0.9 | 4.3 | 0.00 | 0.00 | 0.00 | 45 | 1006.2 |
| 20260505192557 | 77 | 358 | 0.9 | 4.3 | 0.00 | 0.00 | 0.00 | 46 | 1006.4 |
| 20260505192054 | 78 | 58 | 0.0 | 5.2 | 0.00 | 0.00 | 0.00 | 44 | 1006.3 |
| 20260505191552 | 78 | 191 | 3.5 | 4.3 | 0.00 | 0.00 | 0.00 | 45 | 1006.1 |
| 20260505191050 | 79 | 283 | 2.6 | 6.1 | 0.00 | 0.00 | 0.00 | 44 | 1005.9 |
| 20260505190544 | 79 | 234 | 3.5 | 5.2 | 0.00 | 0.00 | 0.00 | 48 | 1006.1 |
| 20260505190040 | 78 | 159 | 3.5 | 5.2 | 0.00 | 0.00 | 0.00 | 43 | 1006.2 |
| 20260505185537 | 79 | 240 | 4.3 | 5.2 | 0.00 | 0.00 | 0.00 | 43 | 1006.3 |
| 20260505185034 | 78 | 162 | 2.6 | 7.0 | 0.00 | 0.00 | 0.00 | 45 | 1006.5 |
| 20260505184531 | 80 | 231 | 2.6 | 6.1 | 0.00 | 0.00 | 0.00 | 43 | 1006.5 |
| 20260505184027 | 79 | 265 | 3.5 | 5.2 | 0.00 | 0.00 | 0.00 | 41 | 1006.6 |
| 20260505183524 | 80 | 216 | 3.5 | 5.2 | 0.00 | 0.00 | 0.00 | 41 | 1006.3 |
| 20260505183021 | 81 | 204 | 3.5 | 5.2 | 0.00 | 0.00 | 0.00 | 41 | 1006.7 |
| 20260505182512 | 80 | 277 | 6.1 | 9.6 | 0.00 | 0.00 | 0.00 | 40 | 1006.8 |
| 20260505182009 | 80 | 249 | 2.6 | 7.0 | 0.00 | 0.00 | 0.00 | 43 | 1006.9 |
| 20260505181505 | 80 | 228 | 5.2 | 9.6 | 0.00 | 0.00 | 0.00 | 39 | 1007.0 |
| 20260505181003 | 79 | 211 | 2.6 | 5.2 | 0.00 | 0.00 | 0.00 | 43 | 1007.1 |
| 20260505180458 | 80 | 168 | 6.1 | 9.6 | 0.00 | 0.00 | 0.00 | 42 | 1007.2 |
| 20260505175955 | 79 | 225 | 7.8 | 11.3 | 0.00 | 0.00 | 0.00 | 44 | 1007.2 |
| 20260505175451 | 79 | 242 | 4.3 | 5.2 | 0.00 | 0.00 | 0.00 | 45 | 1007.2 |
| 20260505174948 | 77 | 337 | 0.9 | 2.6 | 0.00 | 0.00 | 0.00 | 45 | 1007.2 |
| 20260505174445 | 78 | 249 | 2.6 | 7.0 | 0.00 | 0.00 | 0.00 | 47 | 1007.5 |
| 20260505173941 | 78 | 209 | 3.5 | 9.6 | 0.00 | 0.00 | 0.00 | 47 | 1007.6 |
| 20260505173438 | 77 | 206 | 5.2 | 7.0 | 0.00 | 0.00 | 0.00 | 45 | 1007.8 |
| 20260505172935 | 77 | 243 | 3.5 | 6.1 | 0.00 | 0.00 | 0.00 | 46 | 1007.7 |
| 20260505172433 | 77 | 168 | 4.3 | 7.0 | 0.00 | 0.00 | 0.00 | 48 | 1007.5 |
| 20260505171932 | 77 | 114 | 3.5 | 13.9 | 0.00 | 0.00 | 0.00 | 49 | 1007.7 |
| 20260505171430 | 78 | 201 | 5.2 | 6.1 | 0.00 | 0.00 | 0.00 | 48 | 1007.8 |
| 20260505170926 | 77 | 213 | 5.2 | 5.2 | 0.00 | 0.00 | 0.00 | 47 | 1007.5 |
| 20260505170423 | 78 | 196 | 4.3 | 5.2 | 0.00 | 0.00 | 0.00 | 49 | 1007.4 |
| 20260505165918 | 77 | 268 | 3.5 | 4.3 | 0.00 | 0.00 | 0.00 | 47 | 1007.3 |
| 20260505165415 | 78 | 205 | 1.7 | 5.2 | 0.00 | 0.00 | 0.00 | 49 | 1007.2 |
| 20260505164910 | 78 | 256 | 1.7 | 5.2 | 0.00 | 0.00 | 0.00 | 48 | 1007.4 |
| 20260505164407 | 78 | 195 | 2.6 | 5.2 | 0.00 | 0.00 | 0.00 | 53 | 1007.3 |
| 20260505163905 | 79 | 252 | 3.5 | 7.8 | 0.00 | 0.00 | 0.00 | 48 | 1007.3 |
| 20260505163404 | 78 | 286 | 0.9 | 4.3 | 0.00 | 0.00 | 0.00 | 47 | 1007.7 |
| 20260505162902 | 77 | 206 | 4.3 | 6.1 | 0.00 | 0.00 | 0.00 | 48 | 1007.7 |
| 20260505162357 | 78 | 139 | 5.2 | 7.8 | 0.00 | 0.00 | 0.00 | 50 | 1007.5 |
| 20260505161855 | 77 | 230 | 6.1 | 7.0 | 0.00 | 0.00 | 0.00 | 48 | 1007.9 |
| 20260505161352 | 77 | 261 | 2.6 | 6.1 | 0.00 | 0.00 | 0.00 | 50 | 1007.9 |
| 20260505160849 | 75 | 218 | 2.6 | 6.1 | 0.00 | 0.00 | 0.00 | 51 | 1008.2 |
| 20260505160347 | 75 | 223 | 4.3 | 7.8 | 0.00 | 0.00 | 0.00 | 51 | 1008.1 |
| 20260505153326 | 76 | 170 | 1.7 | 6.1 | 0.00 | 0.00 | 0.00 | 54 | 1008.4 |
| 20260505152822 | 76 | 187 | 3.5 | 5.2 | 0.00 | 0.00 | 0.00 | 51 | 1008.5 |
| 20260505152319 | 77 | 171 | 4.3 | 8.7 | 0.00 | 0.00 | 0.00 | 51 | 1008.4 |
| 20260505151814 | 76 | 243 | 2.6 | 5.2 | 0.00 | 0.00 | 0.00 | 51 | 1008.4 |
| 20260505151311 | 76 | 159 | 3.5 | 7.0 | 0.00 | 0.00 | 0.00 | 50 | 1008.3 |
| 20260505150808 | 76 | 158 | 1.7 | 7.0 | 0.00 | 0.00 | 0.00 | 52 | 1008.2 |
| 20260505150305 | 75 | 176 | 3.5 | 7.8 | 0.00 | 0.00 | 0.00 | 51 | 1008.3 |
| 20260505140229 | 72 | 61 | 0.9 | 4.3 | 0.00 | 0.00 | 0.00 | 53 | 1008.3 |
| 20260505130153 | 69 | 359 | 3.5 | 8.7 | 0.00 | 0.00 | 0.00 | 58 | 1009.4 |